Stations météo

réclame
Mon MeteoGroup
La Hague, France (7020): Température de l'air & dewpoint: 18.09.2019 11:00:00 - 24.09.2019 11:00:00 (CEST)La Hague, France (7020): Vitesse du vent & gusts: 18.09.2019 11:00:00 - 24.09.2019 11:00:00 (CEST)La Hague, France (7020): Direction du vent: 18.09.2019 11:00:00 - 24.09.2019 11:00:00 (CEST)La Hague, France (7020): reduced air pressure: 18.09.2019 11:00:00 - 24.09.2019 11:00:00 (CEST)La Hague, France (7020): visibility: 18.09.2019 11:00:00 - 24.09.2019 11:00:00 (CEST)La Hague, France (7020): Quantités de précipitations: 18.09.2019 11:00:00 - 24.09.2019 11:00:00 (CEST)
Date & Time tt [°C] td [°C] ff [km/h] ff [knt] fx [km/h] fx [knt] dd ppp [hPa] vv [km] rr [mm]
24.09.2019 11:00:00 17,3 16,2 29 16 68 37 SW 1002,8 10 -
24.09.2019 10:00:00 17,5 16,4 27 15 48 26 SSW 1001,5 - 2,6
24.09.2019 09:00:00 17,6 16,5 29 16 52 28 SSW 1001,6 - 0,0
24.09.2019 08:00:00 17,3 16,2 33 18 69 37 S 1001,3 10 2,2
24.09.2019 07:00:00 17,4 16,4 48 26 74 40 S 1001,7 - 5,7
24.09.2019 06:00:00 17,5 16,4 35 19 60 33 S 1002,2 - 0,0
24.09.2019 05:00:00 17,5 16,4 37 20 58 31 S 1003,8 10 0,0
24.09.2019 04:00:00 17,5 16,4 33 18 61 33 S 1004,9 - 0,4
24.09.2019 03:00:00 17,4 16,1 36 20 55 30 S 1006,2 - 0,0
24.09.2019 02:00:00 17,3 16,0 36 20 53 29 S 1006,4 8 0,0
24.09.2019 01:00:00 17,3 16,0 36 20 54 29 S 1007,4 - 0,0
24.09.2019 00:00:00 17,2 15,9 40 22 55 30 S 1008,0 - 0,2
23.09.2019 23:00:00 17,2 15,9 35 19 56 30 S 1008,6 8 0,0
23.09.2019 22:00:00 17,2 15,9 37 20 59 32 S 1008,9 - 0,0
23.09.2019 21:00:00 16,7 15,4 35 19 57 31 S 1009,4 - 0,2
23.09.2019 20:00:00 16,8 15,5 37 20 64 34 S 1009,2 8 0,2
23.09.2019 19:00:00 16,5 15,0 43 23 69 38 S 1009,0 - 0,2
23.09.2019 18:00:00 16,1 14,5 41 22 67 36 S 1009,1 - 1,8
23.09.2019 17:00:00 15,9 13,7 38 20 59 32 S 1009,8 6 0,6
23.09.2019 16:00:00 16,9 14,5 36 20 58 31 S 1010,6 - 0,8
23.09.2019 15:00:00 16,5 14,0 34 18 53 29 S 1011,0 - 1,0
23.09.2019 14:00:00 17,4 14,5 33 18 52 28 S 1011,5 12 0,0
23.09.2019 13:00:00 17,6 14,5 30 16 46 25 S 1011,6 - 0,0
23.09.2019 12:00:00 17,4 14,9 33 18 49 26 SSW 1012,2 - 0,0
23.09.2019 11:00:00 16,9 14,5 31 17 48 26 SSW 1012,6 12 0,0
23.09.2019 10:00:00 16,5 14,1 31 17 44 24 SSW 1012,4 - 0,0
23.09.2019 09:00:00 16,3 13,8 28 15 42 23 SSW 1012,1 - 0,0
23.09.2019 08:00:00 15,6 12,9 23 12 41 22 SW 1011,9 16 1,0
23.09.2019 07:00:00 16,4 13,1 24 13 37 20 SW 1011,7 - 0,0
23.09.2019 06:00:00 16,2 12,7 29 16 41 22 WSW 1011,7 - 0,0
23.09.2019 05:00:00 16,4 12,9 32 17 47 25 WSW 1011,4 16 0,0
23.09.2019 04:00:00 16,5 13,2 36 19 50 27 WSW 1010,9 - 0,0
23.09.2019 03:00:00 16,5 13,4 35 19 46 25 WSW 1010,6 - 0,0
23.09.2019 02:00:00 16,4 13,5 36 19 50 27 W 1010,1 20 0,0
23.09.2019 01:00:00 16,2 13,5 37 20 51 27 W 1009,3 - 0,0
23.09.2019 00:00:00 16,2 13,7 38 21 53 28 WSW 1008,4 - 0,0
22.09.2019 23:00:00 16,1 13,9 34 18 44 24 WSW 1007,8 20 0,0
22.09.2019 22:00:00 16,2 13,9 32 17 45 25 WSW 1006,8 - 0,0
22.09.2019 21:00:00 16,2 13,7 28 15 49 26 SW 1006,3 - 0,0
22.09.2019 20:00:00 16,2 13,5 24 13 38 20 SSW 1006,0 12 0,6
22.09.2019 19:00:00 15,8 11,6 40 22 56 30 SW 1006,0 - 0,4
22.09.2019 18:00:00 18,5 13,6 21 11 45 24 SW 1005,0 - 0,0
22.09.2019 17:00:00 18,6 13,5 35 19 48 26 SSW 1005,1 12 0,0
22.09.2019 16:00:00 19,3 14,3 30 16 49 27 SSW 1004,7 - 0,0
22.09.2019 15:00:00 19,1 15,8 35 19 60 32 SSW 1004,3 - 0,0
22.09.2019 14:00:00 18,1 15,5 34 19 51 28 S 1004,1 25 0,0
22.09.2019 13:00:00 17,8 15,8 30 16 47 25 S 1004,1 - 0,0
22.09.2019 12:00:00 17,3 15,6 31 17 42 23 SSW 1003,9 - 0,0
22.09.2019 11:00:00 16,9 15,4 24 13 38 21 S 1003,8 30 0,4
22.09.2019 10:00:00 16,5 14,9 13 7 24 13 S 1003,4 - 0,4
22.09.2019 09:00:00 16,2 14,4 10 6 16 9 S 1003,0 - 2,1
22.09.2019 08:00:00 16,3 14,0 15 8 22 12 SW 1002,9 4,0 4,0
22.09.2019 07:00:00 17,2 13,1 16 9 43 23 W 1002,3 - 0,0
22.09.2019 06:00:00 19,9 14,7 26 14 54 29 S 1002,1 - 0,0
22.09.2019 05:00:00 20,8 14,9 30 16 43 23 S 1002,5 18 0,0
22.09.2019 04:00:00 20,9 14,8 23 13 40 22 SSE 1002,3 - 0,0
22.09.2019 03:00:00 21,4 15,5 27 14 38 21 SSE 1002,9 - 0,0
22.09.2019 02:00:00 22,1 15,7 22 12 32 18 S 1003,3 - 0,0
22.09.2019 01:00:00 22,3 15,9 19 11 29 15 SSE 1003,8 - 0,0
22.09.2019 00:00:00 22,2 16,0 18 10 25 13 SSE 1004,3 - 0,0
21.09.2019 23:00:00 21,0 16,4 13 7 20 11 SE 1004,7 20 0,0
21.09.2019 22:00:00 20,0 15,0 12 6 16 9 ESE 1005,2 - 0,0
21.09.2019 21:00:00 21,9 16,6 14 8 22 12 SE 1005,4 - 0,0
21.09.2019 20:00:00 21,7 18,7 15 8 21 12 SE 1005,6 16 0,0
21.09.2019 19:00:00 19,4 15,5 12 7 15 8 E 1006,1 - 0,0
21.09.2019 18:00:00 19,8 15,0 11 6 21 11 E 1006,6 - 0,2
21.09.2019 17:00:00 21,0 15,3 12 6 21 11 E 1007,0 18 0,0
21.09.2019 16:00:00 22,2 16,2 11 6 16 9 ENE 1007,4 - 0,0
21.09.2019 15:00:00 22,6 14,9 7 4 28 15 WSW 1008,1 - 0,0
21.09.2019 14:00:00 22,5 16,5 18 10 29 16 E 1008,2 20 0,0
21.09.2019 13:00:00 21,7 15,8 19 10 24 13 ENE 1008,6 - 0,0
21.09.2019 12:00:00 21,1 14,7 11 6 20 11 NE 1009,3 - 0,0
21.09.2019 11:00:00 21,3 14,0 9 5 19 10 ENE 1009,8 30 0,0
21.09.2019 10:00:00 20,2 13,9 11 6 21 11 E 1009,9 - 0,0
21.09.2019 09:00:00 17,6 12,1 8 4 18 10 NE 1010,3 - 0,0
21.09.2019 08:00:00 15,6 9,9 8 4 23 13 E 1010,5 16 0,0
21.09.2019 07:00:00 15,7 9,6 16 8 24 13 ENE 1010,6 - 0,0
21.09.2019 06:00:00 15,5 8,2 18 10 29 15 E 1010,9 - 0,0
21.09.2019 05:00:00 15,0 7,0 18 10 28 15 E 1011,6 16 0,0
21.09.2019 04:00:00 15,7 8,0 19 11 31 17 E 1012,3 - 0,0
21.09.2019 03:00:00 15,4 7,9 20 11 27 15 E 1013,1 - 0,0
21.09.2019 02:00:00 15,7 8,9 20 11 27 15 E 1013,6 16 0,0
21.09.2019 01:00:00 15,1 8,3 15 8 22 12 E 1014,4 - 0,0
21.09.2019 00:00:00 14,5 9,1 13 7 20 11 E 1015,1 - 0,0
20.09.2019 23:00:00 14,6 10,0 14 8 22 12 E 1015,4 16 0,0
20.09.2019 22:00:00 16,8 12,1 15 8 39 21 E 1015,7 - 0,0
20.09.2019 21:00:00 17,7 12,6 32 17 51 27 E 1016,1 - 0,0
20.09.2019 20:00:00 18,0 12,2 36 19 58 31 E 1016,3 16 0,0
20.09.2019 19:00:00 18,4 11,7 42 23 65 35 E 1016,7 - 0,0
20.09.2019 18:00:00 18,6 11,7 45 25 66 35 E 1017,1 - 0,0
20.09.2019 17:00:00 18,7 11,7 44 24 63 34 E 1018,4 16 0,0
20.09.2019 16:00:00 18,8 11,1 43 23 63 34 E 1019,1 - 0,0
20.09.2019 15:00:00 18,8 10,1 43 23 61 33 E 1019,9 - 0,0
20.09.2019 14:00:00 18,6 9,4 44 24 65 35 E 1020,7 18 0,0
20.09.2019 13:00:00 18,6 9,4 44 24 62 33 E 1021,2 - 0,0
20.09.2019 12:00:00 18,4 8,1 39 21 56 30 E 1022,3 - 0,0
20.09.2019 11:00:00 17,8 8,9 34 18 49 27 E 1023,0 16 0,0
20.09.2019 10:00:00 16,8 9,2 29 16 46 25 E 1023,6 - 0,0
20.09.2019 09:00:00 15,5 9,6 28 15 47 25 E 1023,8 - 0,0
20.09.2019 08:00:00 14,9 9,3 29 16 46 25 E 1023,8 14 0,0
20.09.2019 07:00:00 15,0 9,6 29 16 48 26 E 1024,0 - 0,0
20.09.2019 06:00:00 15,2 9,8 31 17 50 27 E 1024,3 - 0,0
20.09.2019 05:00:00 15,6 9,9 36 20 58 31 E 1024,9 14 0,0
20.09.2019 04:00:00 15,9 10,4 40 22 56 30 E 1025,3 - 0,0
20.09.2019 03:00:00 16,3 10,8 40 22 58 32 E 1025,8 - 0,0
20.09.2019 02:00:00 16,6 11,9 38 20 59 32 E 1026,1 15 0,0
20.09.2019 01:00:00 16,8 12,3 42 23 63 34 E 1026,4 - 0,0
20.09.2019 00:00:00 16,8 12,1 44 24 61 33 E 1026,9 - 0,0
19.09.2019 23:00:00 16,8 11,9 40 22 59 32 E 1027,2 15 0,0
19.09.2019 22:00:00 16,7 11,8 42 23 58 32 E 1027,2 - 0,0
19.09.2019 21:00:00 16,6 11,7 39 21 61 33 E 1027,2 - 0,0
19.09.2019 20:00:00 16,5 11,4 41 22 61 33 ENE 1027,1 20 0,0
19.09.2019 19:00:00 16,9 11,8 43 23 60 33 ENE 1027,4 - 0,0
19.09.2019 18:00:00 17,4 11,9 40 21 57 31 ENE 1027,8 - 0,0
19.09.2019 17:00:00 17,8 11,6 40 22 56 31 ENE 1028,2 20 0,0
19.09.2019 16:00:00 18,3 11,6 36 19 52 28 ENE 1028,7 - 0,0
19.09.2019 15:00:00 18,4 11,7 34 18 49 26 ENE 1029,2 - 0,0
19.09.2019 14:00:00 18,0 10,8 33 18 50 27 E 1029,7 20 0,0
19.09.2019 13:00:00 18,3 10,9 31 17 48 26 E 1030,0 - 0,0
19.09.2019 12:00:00 18,2 11,7 32 18 50 27 E 1030,3 - 0,0
19.09.2019 11:00:00 16,8 10,9 33 18 46 25 E 1030,2 - 0,0
19.09.2019 10:00:00 16,2 10,5 29 16 44 24 E 1029,9 - 0,0
19.09.2019 09:00:00 15,8 10,5 28 15 42 23 E 1029,3 - 0,0
19.09.2019 08:00:00 15,4 10,2 28 15 44 24 E 1029,0 20 0,0
19.09.2019 07:00:00 15,4 10,2 30 16 45 24 ENE 1028,6 - 0,0
19.09.2019 06:00:00 15,5 10,5 31 17 47 26 ENE 1028,6 - 0,0
19.09.2019 05:00:00 15,7 10,7 33 18 48 26 ENE 1028,6 20 0,0
19.09.2019 04:00:00 15,9 10,9 31 17 46 25 ENE 1028,7 - 0,0
19.09.2019 03:00:00 16,0 11,0 34 19 49 26 ENE 1028,9 - 0,0
19.09.2019 02:00:00 16,1 10,8 34 18 46 25 ENE 1028,9 16 0,0
19.09.2019 01:00:00 16,2 10,7 36 19 49 26 ENE 1028,9 - 0,0
19.09.2019 00:00:00 16,0 10,7 33 18 47 25 ENE 1028,8 - 0,0
18.09.2019 23:00:00 16,1 10,6 32 17 44 24 ENE 1028,5 20 0,0
18.09.2019 22:00:00 16,1 10,2 32 17 44 24 ENE 1028,4 - 0,0
18.09.2019 21:00:00 16,0 9,6 32 17 42 23 ENE 1028,1 - 0,0
18.09.2019 20:00:00 15,9 9,3 27 15 41 22 ENE 1027,6 20 0,0
18.09.2019 19:00:00 16,6 10,2 26 14 42 23 ENE 1027,7 - 0,0
18.09.2019 18:00:00 17,1 10,5 31 17 43 23 ENE 1027,7 - 0,0
18.09.2019 17:00:00 17,6 10,5 31 17 44 24 ENE 1027,8 20 0,0
18.09.2019 16:00:00 18,0 11,3 29 16 43 23 ENE 1028,0 - 0,0
18.09.2019 15:00:00 18,2 11,5 28 15 42 23 ENE 1028,0 - 0,0
18.09.2019 14:00:00 18,1 11,2 29 16 44 24 ENE 1028,2 16 0,0
18.09.2019 13:00:00 16,9 11,2 34 18 45 25 ENE 1028,3 - 0,0
18.09.2019 12:00:00 17,5 11,5 33 18 45 24 ENE 1028,3 - 0,0
18.09.2019 11:00:00 16,8 11,1 32 18 45 24 ENE 1028,1 14 0,0

tt = Température de l'air
td = dewpoint
ff = Vitesse du vent
fx = gusts
dd = Direction du vent
ppp = reduced air pressure
vv = visibility
rr = Quantités de précipitations

stations d'obs. à proximité